When you browse on this site, cookies collect data to enhance your experience and personalize the content and advertising you see.
Visit our Privacy Policy to learn more. By continuing to use the site, you agree to this use of cookies and data.
  • In Spain
  • List of Countries
  • For 7 days
  • Water Temperature
  • Satellite Maps
  • Weather Map
  • Weather Widgets
  • user-avatar
    Login

    Hourly Weather Borisovka

    Today, 20 July, Saturday

    Time Temperature Precipitation Wind Pressure Humidity
    00:00 +14°C° 0 mm 3 mps 742 mmHg 79%
    01:00 +14°C° 0 mm 4 mps 742 mmHg 80%
    02:00 +14°C° 0 mm 4 mps 742 mmHg 82%
    03:00 +14°C° 0 mm 4 mps 743 mmHg 84%
    04:00 +13°C° 0 mm 4 mps 743 mmHg 87%
    05:00 +13°C° 0 mm 4 mps 743 mmHg 89%
    06:00 +14°C° 0 mm 4 mps 744 mmHg 84%
    07:00 +17°C° 0 mm 4 mps 744 mmHg 79%
    08:00 +18°C° 0 mm 4 mps 744 mmHg 73%
    09:00 +19°C° 0 mm 4 mps 744 mmHg 72%
    10:00 +19°C° 0 mm 4 mps 744 mmHg 70%
    11:00 +20°C° 0 mm 4 mps 745 mmHg 68%
    12:00 +21°C° 0 mm 4 mps 745 mmHg 66%
    13:00 +22°C° 0 mm 4 mps 745 mmHg 64%
    14:00 +23°C° 0 mm 4 mps 745 mmHg 64%
    15:00 +23°C° 0.1 mm 4 mps 745 mmHg 65%
    16:00 +22°C° 0.1 mm 4 mps 745 mmHg 66%
    17:00 +22°C° 0.1 mm 4 mps 746 mmHg 67%
    18:00 +20°C° 0 mm 3 mps 745 mmHg 71%
    19:00 +18°C° 0 mm 3 mps 745 mmHg 75%
    20:00 +17°C° 0 mm 3 mps 745 mmHg 79%
    21:00 +16°C° 0 mm 2 mps 746 mmHg 80%
    22:00 +15°C° 0 mm 2 mps 746 mmHg 81%
    23:00 +14°C° 0 mm 2 mps 746 mmHg 82%

    Tomorrow, 21 July, Sunday

    Time Temperature Precipitation Wind Pressure Humidity
    00:00 +13°C° 0 mm 2 mps 746 mmHg 84%
    01:00 +13°C° 0 mm 2 mps 746 mmHg 86%
    02:00 +13°C° 0 mm 2 mps 747 mmHg 88%
    03:00 +13°C° 0 mm 2 mps 747 mmHg 89%
    04:00 +13°C° 0 mm 2 mps 747 mmHg 90%
    05:00 +13°C° 0 mm 1 mps 747 mmHg 91%
    06:00 +15°C° 0 mm 1 mps 747 mmHg 85%
    07:00 +17°C° 0 mm 2 mps 747 mmHg 80%
    08:00 +19°C° 0 mm 2 mps 747 mmHg 74%
    09:00 +21°C° 0 mm 2 mps 747 mmHg 69%
    10:00 +23°C° 0 mm 2 mps 747 mmHg 64%
    11:00 +24°C° 0 mm 2 mps 747 mmHg 59%
    12:00 +25°C° 0 mm 3 mps 747 mmHg 58%
    13:00 +25°C° 0 mm 3 mps 747 mmHg 58%
    14:00 +25°C° 0 mm 3 mps 747 mmHg 57%
    15:00 +25°C° 0.1 mm 3 mps 747 mmHg 61%
    16:00 +25°C° 0.1 mm 2 mps 747 mmHg 66%
    17:00 +24°C° 0.1 mm 2 mps 747 mmHg 70%
    18:00 +21°C° 0 mm 2 mps 746 mmHg 76%
    19:00 +21°C° 0 mm 1 mps 746 mmHg 82%
    20:00 +17°C° 0 mm 0 mps 746 mmHg 88%
    21:00 +16°C° 0 mm 0 mps 746 mmHg 89%
    22:00 +15°C° 0 mm 0 mps 746 mmHg 89%
    23:00 +15°C° 0 mm 0 mps 746 mmHg 89%

    Day after tomorrow, 22 July, Monday

    Time Temperature Precipitation Wind Pressure Humidity
    00:00 +14°C° 0 mm 0 mps 746 mmHg 89%
    01:00 +14°C° 0 mm 0 mps 746 mmHg 90%
    02:00 +14°C° 0 mm 0 mps 746 mmHg 90%
    03:00 +15°C° 0 mm 1 mps 746 mmHg 90%
    04:00 +15°C° 0 mm 1 mps 746 mmHg 89%
    05:00 +16°C° 0 mm 1 mps 746 mmHg 89%
    06:00 +18°C° 0 mm 1 mps 746 mmHg 85%
    07:00 +20°C° 0 mm 1 mps 745 mmHg 81%
    08:00 +20°C° 0 mm 2 mps 745 mmHg 76%
    09:00 +23°C° 0.1 mm 2 mps 745 mmHg 72%
    10:00 +24°C° 0.1 mm 2 mps 745 mmHg 67%
    11:00 +25°C° 0.1 mm 2 mps 745 mmHg 62%
    12:00 +24°C° 0.8 mm 2 mps 744 mmHg 70%
    13:00 +21°C° 0.8 mm 3 mps 744 mmHg 78%
    14:00 +20°C° 0.8 mm 3 mps 744 mmHg 86%
    15:00 +19°C° 0.6 mm 2 mps 744 mmHg 89%
    16:00 +18°C° 0.6 mm 2 mps 744 mmHg 92%
    17:00 +19°C° 0.6 mm 1 mps 744 mmHg 95%
    18:00 +18°C° 0.1 mm 1 mps 743 mmHg 96%
    19:00 +18°C° 0.1 mm 1 mps 743 mmHg 96%
    20:00 +17°C° 0.1 mm 2 mps 743 mmHg 96%
    21:00 +16°C° 0 mm 2 mps 743 mmHg 97%
    22:00 +16°C° 0 mm 2 mps 743 mmHg 97%
    23:00 +15°C° 0 mm 2 mps 743 mmHg 97%

    23 July, Tuesday

    Time Temperature Precipitation Wind Pressure Humidity
    00:00 +16°C° 0 mm 1 mps 743 mmHg 97%
    01:00 +16°C° 0 mm 1 mps 742 mmHg 98%
    02:00 +16°C° 0 mm 1 mps 742 mmHg 98%
    03:00 +16°C° 0 mm 1 mps 742 mmHg 98%
    04:00 +16°C° 0 mm 1 mps 742 mmHg 97%
    05:00 +16°C° 0 mm 1 mps 742 mmHg 97%
    06:00 +16°C° 0.1 mm 1 mps 742 mmHg 97%
    07:00 +18°C° 0.1 mm 1 mps 742 mmHg 96%
    08:00 +17°C° 0.1 mm 2 mps 742 mmHg 96%
    09:00 +17°C° 0.3 mm 2 mps 742 mmHg 95%
    10:00 +17°C° 0.3 mm 2 mps 742 mmHg 95%
    11:00 +17°C° 0.3 mm 3 mps 742 mmHg 94%
    12:00 +17°C° 0.1 mm 3 mps 742 mmHg 93%
    13:00 +17°C° 0.1 mm 3 mps 742 mmHg 93%
    14:00 +17°C° 0.1 mm 3 mps 742 mmHg 92%
    15:00 +17°C° 0.2 mm 3 mps 743 mmHg 93%
    16:00 +17°C° 0.2 mm 3 mps 743 mmHg 94%
    17:00 +15°C° 0.2 mm 4 mps 743 mmHg 95%
    18:00 +16°C° 0 mm 3 mps 743 mmHg 95%
    19:00 +16°C° 0 mm 3 mps 743 mmHg 94%
    20:00 +16°C° 0 mm 3 mps 743 mmHg 94%
    21:00 +16°C° 0 mm 3 mps 743 mmHg 94%
    22:00 +16°C° 0 mm 3 mps 743 mmHg 94%
    23:00 +16°C° 0 mm 3 mps 744 mmHg 94%

    24 July, Wednesday

    Time Temperature Precipitation Wind Pressure Humidity
    00:00 +16°C° 0 mm 3 mps 744 mmHg 94%
    01:00 +16°C° 0 mm 3 mps 744 mmHg 94%
    02:00 +16°C° 0 mm 3 mps 744 mmHg 94%
    03:00 +14°C° 0 mm 3 mps 744 mmHg 94%
    04:00 +14°C° 0 mm 3 mps 744 mmHg 94%
    05:00 +14°C° 0 mm 3 mps 744 mmHg 94%
    06:00 +16°C° 0 mm 3 mps 744 mmHg 87%
    07:00 +18°C° 0 mm 3 mps 744 mmHg 80%
    08:00 +20°C° 0 mm 3 mps 745 mmHg 73%
    09:00 +21°C° 0 mm 3 mps 745 mmHg 67%
    10:00 +24°C° 0 mm 3 mps 745 mmHg 61%
    11:00 +25°C° 0 mm 4 mps 745 mmHg 55%
    12:00 +25°C° 0 mm 4 mps 746 mmHg 54%
    13:00 +26°C° 0 mm 3 mps 746 mmHg 53%
    14:00 +26°C° 0 mm 3 mps 746 mmHg 51%
    15:00 +26°C° 0 mm 3 mps 746 mmHg 55%
    16:00 +25°C° 0 mm 3 mps 746 mmHg 59%
    17:00 +25°C° 0 mm 2 mps 746 mmHg 63%
    18:00 +23°C° 0 mm 2 mps 746 mmHg 70%
    19:00 +20°C° 0 mm 2 mps 746 mmHg 77%
    20:00 +19°C° 0 mm 1 mps 746 mmHg 84%
    21:00 +17°C° 0 mm 2 mps 746 mmHg 85%
    22:00 +17°C° 0 mm 2 mps 746 mmHg 87%
    23:00 +16°C° 0 mm 2 mps 746 mmHg 88%

    25 July, Thursday

    Time Temperature Precipitation Wind Pressure Humidity
    00:00 +15°C° 0 mm 2 mps 746 mmHg 89%
    01:00 +15°C° 0 mm 2 mps 746 mmHg 91%
    02:00 +14°C° 0 mm 2 mps 746 mmHg 92%
    03:00 +14°C° 0 mm 2 mps 747 mmHg 92%
    04:00 +14°C° 0 mm 2 mps 747 mmHg 92%
    05:00 +14°C° 0 mm 2 mps 747 mmHg 91%
    06:00 +16°C° 0 mm 2 mps 747 mmHg 85%
    07:00 +18°C° 0 mm 2 mps 747 mmHg 79%
    08:00 +20°C° 0 mm 2 mps 747 mmHg 73%
    09:00 +22°C° 0 mm 3 mps 747 mmHg 66%
    10:00 +24°C° 0 mm 3 mps 747 mmHg 60%
    11:00 +26°C° 0 mm 3 mps 747 mmHg 53%
    12:00 +26°C° 0 mm 3 mps 747 mmHg 52%
    13:00 +27°C° 0 mm 3 mps 747 mmHg 50%
    14:00 +27°C° 0 mm 3 mps 747 mmHg 48%
    15:00 +27°C° 0 mm 3 mps 747 mmHg 52%
    16:00 +27°C° 0 mm 2 mps 747 mmHg 56%
    17:00 +27°C° 0 mm 2 mps 747 mmHg 60%
    18:00 +25°C° 0 mm 2 mps 747 mmHg 66%
    19:00 +23°C° 0 mm 2 mps 747 mmHg 72%
    20:00 +20°C° 0 mm 2 mps 747 mmHg 78%
    21:00 +19°C° 0 mm 2 mps 747 mmHg 83%
    22:00 +18°C° 0 mm 2 mps 747 mmHg 88%
    23:00 +17°C° 0 mm 2 mps 747 mmHg 92%
    Show more